Probability
16 26 71 77 68 55 52 52 55 61 65 65 68 68 71 68 71 71 68 65 68 68 77 68 71 71 74 71 71 68 61 68 65 61 61 55 52 58 58 52 45 35 58
23 39 71 74 68 58 52 52 52 58 65 68 61 68 68 61 68 68 58 55 58 55 65 65 71 71 71 68 68 71 68 58 55 58 65 55 52 55 61 55 48 45 58
29 32 61 74 71 65 55 55 55 58 61 68 68 68 58 55 55 58 58 55 55 52 58 65 61 71 74 71 71 68 61 58 58 48 45 39 42 52 52 45 48 52 52
29 32 42 74 68 68 61 61 65 58 58 61 65 55 52 58 61 58 61 61 52 55 58 61 65 71 65 68 58 61 65 61 48 52 29 32 35 42 52 48 45 45 45
29 26 48 74 71 65 71 58 61 61 61 58 58 52 48 55 55 55 58 55 58 58 55 61 74 71 65 65 61 58 58 48 48 32 16 29 45 55 55 52 45 39 39
26 26 52 74 71 71 71 61 61 68 58 52 55 55 55 61 61 55 52 58 55 58 61 61 68 55 61 55 58 52 48 45 45 29 19 23 35 52 48 45 48 42 39
23 23 45 71 81 68 61 61 58 58 55 55 55 61 65 68 65 65 52 61 65 52 45 48 48 58 48 52 42 39 39 42 39 29 32 35 35 45 48 45 52 42 42
23 26 48 71 71 65 65 71 65 61 52 55 65 65 58 61 71 61 52 48 55 52 42 39 45 52 48 42 42 35 35 35 19 19 32 35 39 45 39 45 45 39 42
26 32 35 42 58 55 52 61 68 52 48 55 61 61 58 61 61 55 45 48 42 42 42 35 35 42 39 32 35 35 42 32 19 29 16 35 42 39 39 35 39 42 42
26 32 35 35 39 45 52 55 61 55 48 52 52 61 58 52 45 45 48 48 45 42 42 42 42 42 42 39 39 29 32 29 19 19 29 26 29 32 32 39 45 48 45
29 39 39 32 35 35 39 48 52 48 52 55 48 45 52 39 42 48 32 35 35 29 35 45 42 42 45 42 42 35 29 26 16 26 29 32 32 29 32 35 35 39 39
39 42 39 35 29 35 32 42 42 29 48 45 42 45 39 42 39 19 35 35 39 29 23 39 39 39 39 29 32 35 26 26 16 26 29 29 32 32 26 32 42 42 42
29 26 23 39 32 35 42 42 42 35 39 35 42 45 52 45 42 42 39 35 39 26 32 32 39 39 35 42 35 32 29 26 23 23 26 29 32 26 32 32 42 42 42
29 29 32 35 35 42 42 48 39 42 32 39 48 42 42 42 39 39 42 32 32 32 42 32 45 42 39 42 42 29 26 26 32 23 35 23 23 23 32 35 39 42 45
29 29 32 32 32 45 65 58 39 42 39 45 61 42 35 35 42 32 39 39 32 35 32 42 48 42 42 39 35 29 29 23 23 16 32 29 26 29 35 32 39 45 52
39 35 32 35 42 52 55 61 48 39 48 45 45 42 48 39 45 42 48 42 39 39 39 39 52 48 48 45 42 32 29 19 26 32 29 29 29 32 42 45 45 42 42
52 48 45 45 42 48 48 48 45 45 48 42 42 48 52 39 39 45 42 42 39 45 39 48 48 45 42 42 39 35 35 29 32 26 32 29 32 32 39 45 45 45 42
48 58 55 35 35 45 42 52 39 42 45 48 45 52 52 42 42 48 45 42 42 48 48 55 35 35 42 39 42 39 29 26 23 23 23 26 35 26 29 42 42 42 42
58 58 58 52 45 48 48 55 42 45 52 52 48 52 52 39 39 45 45 48 45 45 48 32 29 35 39 29 32 32 26 29 29 23 23 26 29 29 26 29 32 35 35
48 55 58 58 58 58 55 55 48 48 52 58 61 61 61 61 42 42 45 48 45 42 45 45 48 55 42 39 26 19 19 16 16 16 16 16 29 23 19 19 29 26 29
52 58 52 55 58 58 61 55 52 42 52 55 61 55 58 58 52 55 45 55 52 42 42 42 45 39 35 42 35 26 16 13 13 13 13 6 10 19 23 26 32 32 29
48 45 48 52 55 55 55 58 52 48 45 48 45 55 55 61 58 45 58 55 52 55 52 52 52 42 32 35 29 23 23 16 29 13 13 13 13 16 23 19 26 29 32
52 52 42 55 58 58 55 48 39 52 45 39 45 52 58 55 58 52 52 55 48 48 45 48 52 52 39 35 32 23 26 16 10 16 13 10 13 16 16 16 23 23 23
52 52 55 58 58 58 58 45 42 42 39 39 48 45 55 45 45 45 45 52 52 45 48 45 45 48 45 35 29 42 39 29 13 6 13 13 13 10 6 10 10 23 23
45 52 55 58 55 61 58 61 58 48 42 39 45 45 45 52 48 39 45 45 48 42 48 48 48 45 35 39 26 29 29 32 23 19 6 10 13 6 10 16 16 19 23
32 35 48 61 58 58 61 58 58 58 52 52 55 48 52 48 52 39 42 45 45 45 45 45 48 45 42 48 45 29 26 26 16 13 16 13 13 6 10 13 13 29 23
Height
5898 5896 5895 5894 5892 5891 5890 5889 5888 5887 5886 5885 5885 5884 5884 5883 5882 5882 5882 5882 5881 5881 5881 5881 5881 5882 5882 5882 5883 5883 5883 5883 5884 5884 5884 5884 5885 5886 5886 5886 5887 5887 5888
5898 5896 5895 5894 5893 5892 5890 5889 5888 5887 5886 5886 5885 5884 5884 5883 5882 5882 5881 5881 5881 5880 5880 5881 5881 5881 5881 5881 5882 5882 5882 5882 5883 5883 5884 5884 5884 5885 5885 5886 5886 5887 5887
5898 5897 5895 5894 5893 5892 5891 5890 5888 5887 5886 5886 5885 5884 5884 5883 5882 5881 5881 5880 5880 5880 5880 5880 5880 5880 5880 5881 5880 5881 5881 5882 5882 5882 5883 5883 5883 5884 5885 5885 5886 5886 5887
5899 5897 5896 5894 5893 5892 5891 5890 5888 5887 5886 5885 5885 5884 5884 5883 5882 5881 5880 5880 5879 5879 5879 5879 5880 5880 5880 5879 5880 5880 5880 5881 5881 5881 5881 5882 5882 5882 5883 5884 5885 5885 5886
5899 5897 5896 5895 5893 5892 5891 5890 5889 5887 5886 5886 5885 5884 5884 5883 5882 5881 5880 5878 5877 5878 5879 5879 5879 5879 5879 5879 5879 5879 5879 5880 5880 5880 5880 5880 5881 5881 5882 5883 5884 5885 5885
5899 5897 5896 5895 5894 5892 5891 5890 5889 5888 5886 5885 5885 5884 5883 5883 5882 5880 5879 5878 5878 5878 5878 5878 5878 5878 5878 5878 5878 5878 5878 5879 5879 5879 5879 5879 5880 5880 5881 5882 5883 5884 5884
5899 5897 5896 5895 5894 5892 5891 5890 5889 5888 5886 5885 5885 5884 5883 5882 5881 5880 5879 5879 5879 5879 5878 5878 5878 5878 5878 5877 5877 5877 5878 5878 5878 5879 5879 5878 5879 5879 5880 5881 5881 5882 5883
5899 5898 5896 5895 5894 5892 5891 5890 5889 5888 5886 5885 5884 5884 5883 5882 5881 5880 5880 5879 5879 5879 5878 5878 5877 5877 5877 5877 5877 5877 5877 5877 5878 5878 5878 5878 5878 5878 5879 5879 5880 5881 5882
5899 5898 5896 5895 5894 5892 5891 5890 5889 5888 5886 5885 5884 5883 5883 5882 5881 5880 5880 5879 5879 5878 5878 5878 5877 5877 5877 5877 5876 5876 5876 5877 5877 5877 5877 5877 5877 5877 5878 5878 5879 5880 5880
5899 5898 5896 5895 5893 5892 5891 5890 5889 5887 5886 5885 5884 5883 5883 5882 5881 5880 5880 5879 5879 5878 5878 5877 5877 5876 5876 5876 5876 5875 5875 5876 5876 5876 5876 5876 5876 5876 5876 5877 5878 5878 5879
5899 5897 5896 5894 5893 5892 5890 5889 5888 5887 5886 5885 5884 5883 5882 5881 5881 5880 5879 5879 5878 5878 5877 5877 5876 5876 5876 5876 5875 5875 5875 5875 5875 5875 5875 5874 5875 5875 5875 5876 5876 5876 5877
5898 5897 5895 5894 5893 5891 5890 5889 5888 5887 5885 5884 5883 5883 5882 5881 5880 5880 5879 5878 5878 5877 5877 5876 5875 5875 5875 5875 5875 5874 5874 5874 5874 5874 5874 5874 5874 5874 5874 5874 5875 5875 5876
5898 5896 5895 5893 5892 5891 5890 5888 5887 5886 5885 5884 5883 5882 5882 5881 5880 5879 5878 5878 5877 5876 5876 5875 5875 5874 5874 5874 5874 5874 5873 5873 5873 5873 5873 5873 5873 5874 5874 5874 5874 5874 5874
5897 5896 5894 5893 5891 5890 5889 5888 5887 5886 5884 5884 5883 5882 5881 5880 5879 5879 5878 5877 5876 5876 5875 5875 5874 5874 5873 5873 5873 5873 5873 5873 5873 5873 5872 5872 5873 5873 5873 5873 5873 5873 5873
5896 5895 5894 5892 5891 5890 5889 5888 5887 5885 5884 5883 5882 5881 5880 5880 5879 5878 5877 5876 5875 5875 5874 5874 5874 5873 5873 5872 5872 5872 5872 5872 5872 5872 5872 5871 5872 5872 5872 5872 5872 5872 5872
5895 5894 5893 5891 5890 5889 5888 5887 5886 5885 5884 5883 5882 5881 5880 5879 5878 5877 5877 5876 5875 5874 5873 5873 5873 5872 5872 5871 5871 5871 5871 5871 5871 5871 5871 5870 5870 5870 5870 5870 5871 5871 5871
5894 5893 5891 5890 5889 5888 5887 5886 5885 5884 5883 5882 5881 5880 5879 5878 5877 5876 5875 5875 5874 5873 5872 5871 5871 5871 5871 5870 5870 5869 5869 5869 5869 5870 5869 5869 5869 5869 5869 5869 5869 5869 5869
5892 5891 5890 5888 5887 5886 5886 5885 5884 5883 5882 5881 5880 5879 5878 5877 5876 5875 5874 5874 5873 5872 5871 5871 5870 5870 5870 5869 5869 5869 5868 5868 5868 5868 5868 5868 5867 5867 5867 5867 5867 5868 5868
5890 5889 5888 5887 5885 5884 5884 5883 5882 5881 5881 5880 5879 5878 5877 5876 5875 5874 5873 5873 5872 5871 5870 5870 5870 5869 5869 5869 5868 5868 5867 5867 5867 5867 5867 5866 5866 5866 5865 5865 5866 5866 5866
5888 5887 5886 5885 5883 5882 5882 5881 5880 5880 5879 5878 5877 5877 5875 5874 5873 5873 5872 5871 5871 5870 5869 5869 5868 5868 5868 5867 5867 5867 5866 5866 5866 5866 5865 5865 5864 5864 5864 5864 5864 5864 5864
5885 5884 5884 5882 5881 5880 5880 5879 5878 5878 5877 5876 5875 5874 5874 5873 5872 5871 5871 5870 5870 5869 5868 5868 5867 5867 5866 5866 5866 5866 5865 5865 5864 5864 5864 5863 5863 5863 5862 5862 5862 5863 5863
5883 5882 5881 5880 5879 5878 5877 5877 5876 5875 5875 5874 5873 5872 5871 5870 5870 5869 5869 5868 5868 5868 5867 5866 5866 5865 5865 5864 5864 5864 5864 5864 5863 5862 5862 5862 5861 5861 5861 5861 5861 5861 5861
5880 5879 5878 5877 5876 5875 5874 5874 5873 5873 5872 5871 5870 5870 5869 5868 5867 5867 5866 5866 5866 5866 5865 5865 5864 5864 5863 5863 5862 5863 5862 5862 5861 5861 5861 5860 5860 5859 5859 5859 5859 5859 5859
5876 5876 5875 5874 5873 5872 5871 5870 5870 5869 5869 5868 5867 5867 5866 5865 5865 5864 5864 5864 5864 5864 5864 5863 5863 5862 5862 5861 5861 5861 5860 5860 5860 5860 5859 5858 5858 5858 5857 5857 5857 5857 5857
5873 5872 5871 5871 5870 5869 5868 5867 5866 5866 5866 5865 5864 5864 5863 5863 5862 5862 5862 5862 5862 5862 5862 5861 5861 5860 5860 5859 5859 5859 5858 5858 5858 5858 5857 5857 5856 5856 5855 5855 5855 5854 5854
5869 5868 5868 5867 5867 5866 5865 5864 5863 5863 5863 5862 5861 5861 5860 5860 5860 5859 5859 5859 5859 5859 5859 5859 5859 5858 5858 5857 5857 5857 5856 5856 5856 5855 5855 5855 5854 5854 5853 5853 5852 5852 5852
Wind_Speed
9 8 8 8 8 7 6 6 5 4 4 4 4 4 4 4 3 2 2 2 2 2 1 3 4 3 3 4 4 4 5 5 5 6 6 8 7 7 7 8 8 8 8
9 8 7 7 8 7 7 6 6 5 5 4 4 4 4 3 3 2 2 1 2 2 2 2 3 4 3 3 4 5 5 5 5 6 7 7 7 7 7 7 8 8 7
9 9 8 7 7 7 6 6 6 5 5 5 5 4 4 3 3 2 2 1 1 2 2 2 2 3 4 4 4 5 6 6 6 6 7 7 7 8 8 7 7 7 7
9 9 8 7 7 6 6 6 6 5 5 5 5 4 4 3 2 2 2 1 1 2 2 3 3 3 3 3 5 5 6 6 6 6 6 7 7 7 8 8 7 7 7
9 8 8 8 7 7 6 6 5 5 5 5 5 4 4 3 3 2 2 1 1 2 3 3 3 3 3 4 4 5 6 6 6 6 7 7 7 7 8 8 8 7 7
9 8 7 7 7 6 6 5 5 5 4 5 5 4 4 3 3 3 2 2 2 2 2 2 2 3 3 3 3 4 5 5 6 6 7 7 7 8 8 8 8 7 7
9 8 7 7 7 6 5 4 5 4 4 4 4 4 3 3 3 3 2 2 2 2 2 2 1 2 2 3 3 3 4 4 4 5 5 5 6 7 8 9 9 8 8
9 8 7 7 6 6 5 4 4 4 4 4 3 3 3 3 3 2 2 2 2 2 2 2 1 2 2 3 3 3 4 4 4 5 5 4 5 6 8 8 8 9 9
8 8 8 7 6 6 5 4 4 3 3 3 3 3 3 3 3 3 3 2 2 1 1 1 1 2 3 3 4 4 4 4 5 5 5 6 6 6 8 8 7 8 8
8 8 8 7 6 5 5 4 4 3 3 3 3 3 3 3 3 3 2 2 2 2 1 1 1 2 3 3 4 5 5 5 5 6 6 6 6 6 8 8 8 9 9
8 8 7 7 6 6 5 5 4 3 3 3 3 2 2 2 2 2 2 1 1 1 1 1 1 2 3 4 4 4 4 5 6 6 6 6 5 6 7 7 7 7 8
8 7 7 6 6 6 5 5 4 4 4 3 3 2 2 2 2 2 1 1 2 2 2 2 1 2 3 4 4 4 4 5 6 6 6 6 5 6 6 7 7 8 8
7 7 7 6 6 5 5 5 5 5 4 3 3 2 3 3 2 2 2 2 2 2 2 2 2 3 3 4 4 4 4 5 5 6 6 5 5 5 6 6 6 7 7
8 7 6 6 5 5 5 5 5 5 4 4 3 3 3 3 3 3 2 2 2 3 3 2 2 2 3 4 5 5 5 5 6 5 4 5 5 5 5 6 6 6 7
8 7 7 6 5 5 5 5 5 5 4 3 3 3 3 3 3 3 3 3 3 3 3 3 3 3 3 3 5 5 5 5 6 5 5 6 6 6 6 7 7 7 6
8 7 7 6 5 5 5 5 5 5 5 4 3 3 3 3 3 3 3 3 4 4 3 3 3 4 4 4 4 5 5 5 5 6 6 7 7 6 7 7 7 7 6
9 8 7 7 6 6 6 6 5 5 5 5 4 4 3 3 3 4 4 4 4 4 3 3 3 3 4 4 4 5 5 5 6 6 6 6 6 6 7 7 7 6 6
9 8 8 7 6 6 6 6 5 5 5 5 5 4 4 4 4 4 4 4 4 4 3 3 3 3 4 4 4 5 4 5 5 6 7 7 7 7 6 6 7 7 7
10 9 8 8 7 7 7 6 6 5 6 5 5 5 5 5 5 5 4 4 4 4 3 4 4 4 4 4 4 4 4 5 5 5 6 7 7 6 6 6 7 8 8
11 10 9 9 8 8 8 7 7 6 7 7 7 6 6 6 6 5 5 5 4 4 4 4 5 5 5 5 5 4 5 5 5 6 6 6 6 6 6 6 6 8 8
12 11 10 10 10 10 9 9 8 8 8 8 8 8 8 8 7 6 6 6 6 5 5 5 5 6 6 6 6 6 6 6 6 6 6 7 7 7 7 7 7 8 9
13 12 12 12 11 11 11 11 10 9 10 10 10 9 9 9 8 7 7 7 7 7 6 6 6 6 7 7 7 7 7 7 7 7 7 7 7 8 8 9 9 8 8
14 13 13 13 12 12 13 13 12 11 10 10 10 10 9 9 9 9 8 8 7 8 8 7 7 7 7 7 8 8 8 7 8 8 8 8 8 7 8 8 9 9 9
15 14 14 14 13 13 12 13 13 11 11 11 10 10 9 9 9 10 9 9 9 9 8 8 7 7 7 7 8 9 9 8 8 8 8 7 7 8 8 8 7 8 9
17 16 15 14 13 13 13 13 13 12 11 11 11 10 10 10 10 11 11 10 10 9 9 9 9 8 8 8 9 9 10 10 10 9 8 8 8 8 8 8 8 9 10
17 16 16 15 14 14 13 12 13 13 12 12 11 11 11 11 11 11 12 12 11 11 10 10 9 9 9 9 9 10 10 10 10 9 9 9 9 9 9 9 10 10 10
Wind_Direction
29 31 34 35 37 39 42 47 56 65 72 73 76 77 78 88 79 77 80 127 147 162 158 178 187 192 200 203 205 206 205 208 220 218 224 223 222 223 222 224 222 222 218
26 27 27 34 38 39 42 49 57 64 70 70 72 76 78 78 67 57 63 107 121 139 156 177 194 204 213 214 214 210 206 206 214 220 221 222 227 227 226 227 227 228 230
26 24 21 28 36 36 38 44 53 62 69 70 70 71 73 74 66 59 66 74 112 143 167 177 184 204 214 218 218 212 210 204 211 221 227 234 237 236 235 230 230 235 234
22 22 22 25 29 34 35 40 48 57 67 70 71 72 69 63 59 60 67 73 179 184 185 185 181 193 204 210 217 212 208 208 213 223 230 235 235 234 234 233 233 234 232
20 20 22 25 30 33 32 39 46 52 59 64 65 67 64 54 40 55 61 58 177 192 185 184 190 192 200 211 216 214 210 210 217 221 226 230 227 230 234 236 237 237 234
18 17 20 22 24 25 29 37 43 46 53 61 59 58 57 53 50 57 64 81 112 152 168 183 197 193 203 209 211 216 218 208 219 226 229 230 227 227 234 238 232 234 234
14 11 14 16 16 17 22 28 33 39 48 52 52 52 51 51 54 58 66 84 103 120 149 173 180 182 191 197 205 217 219 222 217 219 224 230 230 229 229 232 228 227 225
9 6 7 10 11 10 11 18 27 34 42 43 46 51 49 50 49 57 63 77 98 119 126 138 161 193 195 204 205 218 225 225 220 220 231 239 241 237 230 228 225 225 225
359 360 1 3 5 5 3 6 10 19 28 32 43 55 52 50 55 57 63 69 75 82 109 159 196 200 200 201 210 221 227 230 229 227 233 241 248 240 233 228 227 224 228
349 350 353 356 357 359 357 356 357 8 16 21 33 49 55 52 50 53 62 64 67 51 32 356 271 225 220 216 213 222 233 237 238 237 239 241 248 241 227 226 231 228 229
342 342 346 350 350 350 348 349 350 356 1 2 6 20 36 36 32 40 46 32 28 10 344 323 277 236 217 216 211 221 231 231 235 237 238 241 245 243 239 242 243 238 237
339 339 340 343 346 346 345 347 344 347 347 348 347 358 9 13 9 7 354 317 298 305 306 293 261 240 226 225 228 232 233 240 248 246 237 233 237 242 246 245 249 246 240
336 335 333 336 337 339 337 342 343 343 343 345 343 347 352 351 344 335 315 308 307 300 295 292 273 246 233 233 243 241 238 248 258 251 247 245 241 246 250 243 244 250 250
329 327 324 326 327 332 333 336 339 343 345 341 342 348 347 346 343 336 317 303 308 307 296 288 273 266 249 245 249 249 247 250 247 256 266 261 251 252 254 251 256 258 257
321 323 320 318 320 326 328 328 337 341 341 342 346 342 340 343 341 342 333 305 297 294 285 276 269 264 263 268 261 258 252 251 252 255 263 264 253 250 251 252 261 261 259
315 318 316 313 313 316 317 320 329 333 332 327 329 335 337 335 335 332 327 321 312 301 291 278 273 262 266 276 280 272 260 258 259 260 262 262 254 249 253 255 264 266 259
306 310 310 306 305 307 307 309 313 320 324 325 314 304 312 314 318 324 324 321 317 308 290 274 271 265 272 278 283 284 273 266 264 264 261 262 255 251 258 266 265 262 258
298 303 303 300 295 294 294 299 302 307 311 317 313 303 300 301 307 312 312 312 313 311 303 285 278 269 267 275 283 284 279 275 273 266 261 262 262 262 265 267 259 260 261
291 294 293 293 291 286 286 289 293 297 298 304 307 298 294 298 302 302 303 303 303 305 304 295 284 274 271 276 285 287 284 282 279 272 272 271 267 268 267 259 255 256 261
286 288 285 285 288 284 279 282 285 286 288 290 297 293 291 291 292 291 289 290 292 296 294 288 288 282 277 277 281 286 282 284 285 275 273 275 269 273 267 260 259 258 260
283 285 283 280 282 281 277 275 276 280 283 284 290 291 286 281 282 282 280 281 282 284 285 282 279 278 275 275 278 282 282 278 275 274 277 277 273 272 267 266 265 263 260
277 279 281 280 277 275 275 272 269 273 277 280 285 285 280 278 276 276 277 276 277 280 282 282 277 273 273 277 277 279 286 278 271 274 279 279 277 273 271 270 267 260 257
274 277 281 281 278 276 273 269 268 270 274 276 280 284 280 275 270 271 275 271 273 279 281 282 281 274 275 276 276 276 281 279 278 278 280 276 277 278 271 271 270 260 256
272 274 277 278 279 279 277 270 269 267 270 274 277 280 279 274 268 269 270 271 270 275 280 282 281 281 281 280 275 278 280 279 279 284 281 278 280 278 271 270 263 256 255
270 272 273 276 278 278 278 272 266 265 268 270 274 277 275 272 269 271 267 267 267 273 278 280 281 281 283 280 279 278 277 277 276 279 281 280 281 280 275 271 266 263 259
268 269 271 274 276 276 276 271 265 264 264 267 271 274 274 271 271 273 272 272 273 273 276 281 281 284 282 281 278 275 278 281 281 277 278 277 278 277 275 277 273 269 266